#timestamp,LO_Frequency,Hit,StdDev 
1546189215.4,286047002.7,N
1546189235.2,286047000.1,N
1546189255.1,286046999.9,N
1546189256.0,286046999.9,N
1546189275.8,286047000.4,N
1546189295.7,286047000.1,N
1546189315.5,286047000.3,N
1546189335.3,286047000.2,N
1546189355.2,286047002.8,N
1546189375.0,286047002.2,N
1546189375.9,286047002.2,N
1546189395.8,286047000.9,N
1546189415.6,286046999.8,N
1546189435.4,286047002.0,N
1546189455.3,286046999.8,N
1546189475.1,286047002.5,N
1546189495.9,286047002.4,N
1546189515.7,286047002.4,N
1546189535.5,286047002.6,N
1546189555.4,286047002.7,N
1546189575.2,286047000.2,N
1546189595.0,286047002.4,N
1546189596.0,286047002.4,N
1546189615.8,286047002.3,N
1546189635.6,286047001.9,N
1546189655.5,286047002.8,N
1546189675.3,286047000.2,N
1546189695.1,286047000.0,N
1546189715.9,286047002.7,N
1546189735.7,286047000.9,N
1546189755.6,286046998.2,N
1546189775.4,286047002.7,N
1546189795.2,286047002.8,N
1546189815.1,286047000.3,N
1546189816.0,286047000.3,N
1546189835.8,286047000.3,N
1546189855.6,286047002.1,N
1546189875.5,286047002.3,N
1546189895.3,286047002.6,N
1546189915.2,286047004.4,Y
1546189935.0,286047000.0,P
1546189935.9,286047000.0,N
1546189955.7,286046999.7,N
1546189975.6,286047000.0,N
1546189995.4,286047000.5,N
1546190015.3,286047000.8,N
1546190035.1,286047001.0,N
1546190036.0,286047001.0,N
1546190055.8,286047000.8,N
1546190075.7,286046998.3,Y
1546190095.5,286047001.1,P
1546190115.4,286046999.7,N
1546190135.2,286047000.0,N
1546190155.0,286046998.6,N
1546190155.9,286046998.6,N
1546190175.8,286046999.3,N
1546190195.6,286046999.6,N
1546190215.4,286046998.3,N
1546190235.3,286047001.0,N
1546190255.1,286046998.2,N
1546190275.9,286046999.3,N
1546190295.7,286046999.0,N
1546190315.5,286046996.6,Y
1546190335.4,286046999.5,P
1546190355.2,286047001.1,P
1546190375.1,286046999.5,N
1546190376.0,286046999.5,N
1546190395.8,286046998.6,N
1546190415.6,286046996.5,Y
1546190435.5,286046996.6,P
1546190455.3,286046999.6,N
1546190475.2,286046998.7,N
1546190495.9,286046998.7,N
1546190515.7,286046998.8,N
1546190535.6,286046998.9,N
1546190555.4,286046999.3,N
1546190575.2,286046999.5,N
1546190595.1,286046999.5,N
1546190596.0,286046999.5,N
1546190615.8,286046998.2,N
1546190635.7,286047001.1,N
1546190655.5,286047000.3,N
1546190675.3,286047000.4,N
1546190695.2,286047002.8,N
1546190715.9,286047000.4,N
1546190735.7,286046999.8,N
1546190755.6,286047001.3,N
1546190775.4,286047005.7,Y
1546190795.3,286047003.1,P
1546190815.1,286047002.2,N
1546190816.0,286047002.2,N
1546190835.8,286047001.7,N
1546190855.7,286047003.9,Y
1546190875.5,286047000.9,P
1546190895.4,286046999.4,N
1546190915.2,286046996.8,P
1546190935.0,286046999.4,N
1546190935.9,286046999.4,N
1546190955.8,286046998.2,N
1546190975.6,286046998.1,N
1546190995.4,286046999.5,N
1546191015.3,286046997.1,N
1546191035.1,286046997.9,N
1546191055.9,286046997.6,N
1546191075.7,286046996.7,N
1546191095.5,286046997.4,N
1546191115.4,286046999.2,N
1546191135.2,286046999.4,N
1546191155.1,286046996.6,N
1546191156.0,286046996.6,N
1546191175.8,286046996.7,N
1546191195.6,286046996.8,N
1546191215.5,286046999.2,N
1546191235.3,286046998.3,N
1546191255.2,286047000.8,N
1546191275.9,286046998.3,N
1546191295.7,286046998.9,N
1546191315.6,286046998.8,N
1546191335.4,286046997.9,N
1546191355.2,286046997.1,N
1546191375.1,286046997.4,N
1546191376.0,286046997.4,N
1546191395.8,286046997.0,N
1546191415.7,286046999.5,N
1546191435.5,286046998.9,N
1546191455.3,286046999.1,N
1546191475.2,286046998.1,N
1546191495.0,286047000.9,N
1546191495.9,286047000.9,N
1546191515.8,286046998.1,N
1546191535.6,286047001.2,N
1546191555.4,286046999.0,N
1546191575.3,286046998.2,N
1546191595.1,286046998.4,N
1546191615.9,286046999.3,N
1546191635.7,286046996.9,N
1546191655.5,286046999.2,N
1546191675.4,286046999.3,N
1546191695.2,286046997.0,N
1546191715.0,286046996.9,N
1546191715.9,286046996.9,N
1546191735.8,286046997.0,N
1546191755.6,286046996.8,N
1546191775.5,286046997.1,N
1546191795.3,286046997.6,N
1546191815.1,286047001.2,N
1546191835.9,286047000.2,N
1546191855.7,286047002.8,N
1546191875.6,286047000.6,N
1546191895.4,286047000.7,N
1546191915.2,286047002.3,N
1546191935.1,286046999.7,N
1546191936.0,286046999.7,N
1546191955.8,286047000.7,N
1546191975.6,286046998.3,N
1546191995.5,286047000.7,N
1546192015.3,286046998.8,N
1546192035.2,286046998.3,N
1546192055.9,286047000.6,N
1546192075.7,286047000.6,N
1546192095.6,286046998.1,N
1546192115.4,286046998.7,N
1546192135.2,286046999.0,N
1546192155.1,286046998.5,N
1546192156.0,286046998.5,N
1546192175.8,286046998.9,N
1546192195.7,286046997.4,N
1546192215.5,286046996.7,N
1546192235.3,286046998.6,N
1546192255.2,286046999.2,N
1546192275.0,286046998.4,N
1546192275.9,286046998.4,N
1546192295.8,286046998.6,N
1546192315.6,286047001.0,N
1546192335.4,286047000.9,N
1546192355.3,286047000.8,N
1546192375.1,286047000.6,N
1546192395.8,286047002.8,N
1546192415.7,286047002.8,N
1546192435.5,286047000.2,N
1546192455.4,286046999.8,N
1546192475.2,286047000.9,N
1546192495.0,286047000.6,N
1546192495.9,286047000.6,N
1546192515.8,286047000.8,N
1546192535.6,286046998.2,N
1546192555.5,286047000.5,N
1546192575.3,286047000.7,N
1546192595.1,286047001.1,N
1546192615.9,286047000.4,N
1546192635.7,286046998.5,N
1546192655.6,286047000.6,N
1546192675.4,286046998.1,N
1546192695.2,286046998.7,N
1546192715.1,286047001.2,N
1546192716.0,286047001.2,N
1546192735.8,286046998.8,N
1546192755.7,286046999.1,N
1546192775.5,286046998.9,N
1546192795.3,286046998.5,N
